Location: Newark
(48.1500°N, 2.9667°W)
Time: 15:20:20
(UTC+00:00)

Transit 2A - Pass Details

Date: 28 January 2020
Orbit: 599 x 959 km, 66.7° (Epoch: 25 February)

Event Time Altitude Azimuth Distance (km) Brightness Sun altitude
Rises 19:32:19 0° 212° (SSW) 2,882 9.4 -24.6°
Reaches altitude 10° 19:34:35 10° 211° (SSW) 1,957 8.5 -25.0°
Enters shadow 19:37:57 53° 207° (SSW) 745 6.0 -25.6°
Maximum altitude 19:38:57 85° 123° (ESE) 608 - -25.7°
Drops below altitude 10° 19:43:19 10° 36° (NE) 1,960 - -26.4°
Sets 19:45:35 0° 36° (NE) 2,887 - -26.8°
